Regional Weather Roundup
Issued by NWS

Home | Current Version | Previous Version | Text Only | Print | Product List | Glossary On
Versions: 1 2 3 4 5 6 7 8 9 10 11 12 13 14 15 16 17 18 19 20 21 22 23 24 25 26 27 28 29 30 31 32 33 34 35 36 37 38 39 40 41 42 43 44 45 46 47 48 49 50
000
ASCA42 TJSJ 230810
RWRPR
PUERTO RICO/U.S. VIRGIN ISLANDS HOURLY WEATHER ROUNDUP
NATIONAL WEATHER SERVICE SAN JUAN PR
400 AM AST MON OCT 23 2017

PRZ001>002-007>008-010-230900-
PUERTO RICO

CITY           SKY/WX    TMP DP  RH WIND       PRES   REMARKS
SAN JUAN LMM   PTCLDY    79  75  89 SE5       29.98S
$$

VIZ001>002-230900-
U.S. VIRGIN ISLANDS

CITY           SKY/WX    TMP DP  RH WIND       PRES   REMARKS
$$

HOURLY WEATHER ROUNDUP FOR THE NEWS MEDIA

CITY           SKY/WX    TMP DP  RH WIND       PRES   REMARKS
NEW YORK       CLOUDY    58  58 100 NE3       30.33F
NEWARK         MOCLDY    63  61  93 VRB3      30.32F
CHICAGO        LGT RAIN  52  49  89 N9        29.95F FOG
HARTFORD       FOG       48  47  96 CALM      30.37F VSB 1/4
BOSTON         CLOUDY    55  54  96 VRB3      30.38F FOG
DALLAS         CLEAR     55  48  77 CALM      30.13F
PHILADELPHIA   FOG       61  60  97 NE5       30.31F VSB 1/2
LOS ANGELES    PTCLDY    78  43  28 NE7       30.05F
WASHINGTON DC  MOCLDY    51  51 100 E3        30.26F


USA.gov is the U.S. government's official web portal to all federal, state and local government web resources and services.